TimeEDT,TemperatureF,Dew PointF,Humidity,Sea Level PressureIn,VisibilityMPH,Wind Direction,Wind SpeedMPH,Gust SpeedMPH,PrecipitationIn,Events,Conditions,WindDirDegrees,DateUTC
12:53 AM,30.0,23.0,75,30.36,10.0,Calm,Calm,-,N/A,,Clear,0,2013-10-29 04:53:00
1:53 AM,27.0,21.0,78,30.37,10.0,Calm,Calm,-,N/A,,Clear,0,2013-10-29 05:53:00
2:53 AM,26.1,21.9,84,30.38,10.0,Calm,Calm,-,N/A,,Clear,0,2013-10-29 06:53:00
3:53 AM,25.0,19.9,81,30.38,10.0,Calm,Calm,-,N/A,,Clear,0,2013-10-29 07:53:00
4:53 AM,21.9,19.0,89,30.40,10.0,Calm,Calm,-,N/A,,Clear,0,2013-10-29 08:53:00
5:53 AM,24.1,19.9,84,30.41,10.0,Calm,Calm,-,N/A,,Mostly Cloudy,0,2013-10-29 09:53:00
6:53 AM,25.0,21.0,85,30.42,10.0,Calm,Calm,-,N/A,,Overcast,0,2013-10-29 10:53:00
7:53 AM,26.1,21.9,84,30.43,10.0,Calm,Calm,-,N/A,,Partly Cloudy,0,2013-10-29 11:53:00
8:53 AM,36.0,24.1,62,30.44,10.0,NNW,3.5,-,N/A,,Clear,330,2013-10-29 12:53:00
9:53 AM,42.1,24.1,49,30.45,10.0,North,5.8,-,N/A,,Clear,360,2013-10-29 13:53:00
10:53 AM,45.0,26.1,48,30.43,10.0,NW,5.8,-,N/A,,Clear,310,2013-10-29 14:53:00
11:53 AM,46.9,27.0,46,30.41,10.0,Calm,Calm,-,N/A,,Clear,0,2013-10-29 15:53:00
12:53 PM,48.0,24.1,39,30.39,10.0,Variable,5.8,-,N/A,,Clear,0,2013-10-29 16:53:00
1:53 PM,48.9,21.9,35,30.38,10.0,West,5.8,-,N/A,,Clear,280,2013-10-29 17:53:00
2:53 PM,48.9,19.0,31,30.38,10.0,Calm,Calm,-,N/A,,Clear,0,2013-10-29 18:53:00
3:53 PM,50.0,17.1,27,30.38,10.0,Variable,4.6,-,N/A,,Clear,0,2013-10-29 19:53:00
4:53 PM,48.9,17.1,28,30.38,10.0,Calm,Calm,-,N/A,,Clear,0,2013-10-29 20:53:00
5:53 PM,42.1,28.0,58,30.38,10.0,East,4.6,-,N/A,,Clear,100,2013-10-29 21:53:00
6:53 PM,36.0,28.9,76,30.39,10.0,Calm,Calm,-,N/A,,Clear,0,2013-10-29 22:53:00
7:53 PM,30.9,26.1,82,30.40,10.0,Calm,Calm,-,N/A,,Clear,0,2013-10-29 23:53:00
8:53 PM,28.9,26.1,89,30.40,10.0,Calm,Calm,-,N/A,,Clear,0,2013-10-30 00:53:00
9:53 PM,28.9,26.1,89,30.39,10.0,Calm,Calm,-,N/A,,Clear,0,2013-10-30 01:53:00
10:46 PM,26.6,24.8,93,30.39,1.8,Calm,Calm,-,N/A,,Clear,0,2013-10-30 02:46:00
10:53 PM,25.0,23.0,92,30.39,0.5,Calm,Calm,-,N/A,Fog,Light Freezing Fog,0,2013-10-30 02:53:00
11:12 PM,26.6,24.8,93,30.39,2.0,Calm,Calm,-,N/A,,Clear,0,2013-10-30 03:12:00
11:21 PM,26.6,24.8,93,30.38,10.0,Calm,Calm,-,N/A,,Clear,0,2013-10-30 03:21:00
11:31 PM,26.6,24.8,93,30.38,1.8,Calm,Calm,-,N/A,,Clear,0,2013-10-30 03:31:00
11:53 PM,27.0,24.1,89,30.38,2.5,Calm,Calm,-,N/A,,Clear,0,2013-10-30 03:53:00